Location: Banios
(43.0451°N, 0.2335°E)
Time: 02:22:25
(UTC+00:00)

A-11 Canister half - All Passes

Search period start: 12 May 2021 00:00
Search period end: 22 May 2021 00:00
Orbit: 1526 x 1683 km, 47.3° (Epoch: 11 May)

Date Brightness Start Highest point End Pass type
(mag) Time Alt. Az. Time Alt. Az. Time Alt. Az.
12 May - 07:26:46 10° S 07:34:27 29° SE 07:42:18 10° ENE daylight
12 May - 09:28:52 10° SW 09:38:24 77° SSE 09:48:18 10° ENE daylight
12 May - 11:34:09 10° W 11:43:52 71° N 11:53:55 10° ENE daylight
12 May - 13:39:48 10° WNW 13:49:44 82° NNE 13:59:56 10° ESE daylight
12 May - 15:45:06 10° WNW 15:54:37 51° SW 16:04:15 10° SSE daylight
12 May - 17:53:18 10° W 17:57:58 14° WSW 18:02:38 10° SSW daylight
13 May - 07:05:23 10° S 07:12:52 27° SE 07:20:30 10° ENE daylight
13 May - 09:07:16 10° SW 09:16:45 75° SSE 09:26:35 10° ENE daylight
13 May - 11:12:27 10° W 11:22:09 71° N 11:32:11 10° ENE daylight
13 May - 13:18:07 10° WNW 13:28:02 81° NNE 13:38:13 10° ESE daylight
13 May - 15:23:25 10° WNW 15:32:58 53° SW 15:42:41 10° SSE daylight
13 May - 17:31:12 10° W 17:36:23 15° WSW 17:41:35 10° SSW daylight
14 May - 06:44:02 10° S 06:51:17 26° SE 06:58:42 10° ENE daylight
14 May - 08:45:40 10° SW 08:55:06 72° SSE 09:04:53 10° ENE daylight
14 May - 10:50:46 10° W 11:00:26 71° N 11:10:27 10° ENE daylight
14 May - 12:56:26 10° WNW 13:06:20 79° NNE 13:16:29 10° ESE daylight
14 May - 15:01:42 10° WNW 15:11:19 55° SW 15:21:05 10° SE daylight
14 May - 17:09:10 10° W 17:14:48 17° WSW 17:20:28 10° SSW daylight
15 May - 06:22:42 10° S 06:29:43 24° SE 06:36:52 10° E daylight
15 May - 08:24:03 10° SW 08:33:26 70° SSE 08:43:11 10° ENE daylight
15 May - 10:29:05 10° W 10:38:43 72° N 10:48:42 10° ENE daylight
15 May - 12:34:46 10° WNW 12:44:37 78° NNE 12:54:45 10° ESE daylight
15 May - 14:40:01 10° WNW 14:49:40 57° SW 14:59:29 10° SE daylight
15 May - 16:47:11 10° W 16:53:13 18° SW 16:59:17 10° SSW daylight
16 May - 06:01:23 10° S 06:08:09 23° SE 06:15:01 10° E daylight
16 May - 08:02:28 10° SW 08:11:48 68° SSE 08:21:28 10° ENE daylight
16 May - 10:07:24 10° W 10:17:01 73° N 10:26:59 10° ENE daylight
16 May - 12:13:05 10° WNW 12:22:54 77° NNE 12:33:01 10° E daylight
16 May - 14:18:21 10° WNW 14:28:00 60° SW 14:37:52 10° SE daylight
16 May - 16:25:16 10° W 16:31:37 19° SW 16:38:03 10° SSW daylight
17 May - 05:40:07 10° S 05:46:34 21° SE 05:53:09 10° E daylight
17 May - 07:40:54 10° SW 07:50:09 65° SE 07:59:45 10° ENE daylight
17 May - 09:45:43 10° W 09:55:19 74° N 10:05:15 10° ENE daylight
17 May - 11:51:24 10° WNW 12:01:12 76° NNE 12:11:16 10° E daylight
17 May - 13:56:39 10° WNW 14:06:21 62° SW 14:16:15 10° SE daylight
17 May - 16:03:22 10° W 16:10:02 20° SW 16:16:47 10° S daylight
18 May - 05:18:51 10° SSE 05:25:01 20° SE 05:31:15 10° E daylight
18 May - 07:19:19 10° SW 07:28:31 63° SE 07:38:03 10° ENE daylight
18 May - 09:24:02 10° W 09:33:36 75° NNW 09:43:31 10° ENE daylight
18 May - 11:29:44 10° WNW 11:39:29 75° NNE 11:49:32 10° E daylight
18 May - 13:34:59 10° WNW 13:44:41 64° SW 13:54:37 10° SE daylight
18 May - 15:41:30 10° W 15:48:27 22° SW 15:55:29 10° S daylight
19 May - 04:57:38 10° SSE 05:03:27 18° SE 05:09:20 10° E daylight
19 May - 06:57:45 10° SW 07:06:53 60° SE 07:16:20 10° ENE daylight
19 May - 09:02:22 10° W 09:11:54 76° NNW 09:21:48 10° ENE daylight
19 May - 11:08:03 10° WNW 11:17:46 74° NNE 11:27:49 10° E daylight
19 May - 13:13:19 10° WNW 13:23:01 67° SW 13:32:59 10° SE daylight
19 May - 15:19:38 10° W 15:26:50 23° SW 15:34:09 10° S daylight
20 May - 04:36:28 10° SSE 04:41:54 17° SE 04:47:23 10° E daylight
20 May - 06:36:11 10° SW 06:45:16 58° SE 06:54:38 10° ENE daylight
20 May - 08:40:41 10° W 08:50:12 77° NNW 09:00:05 10° ENE daylight
20 May - 10:46:22 10° WNW 10:56:04 73° N 11:06:04 10° E daylight
20 May - 12:51:38 10° WNW 13:01:22 69° SSW 13:11:20 10° SE daylight
20 May - 14:57:50 10° W 15:05:15 25° SW 15:12:48 10° S daylight
21 May - 04:15:21 10° SSE 04:20:21 16° ESE 04:25:23 10° E daylight
21 May - 06:14:38 10° SW 06:23:39 55° SE 06:32:56 10° ENE daylight
21 May - 08:19:01 10° WSW 08:28:31 78° NNW 08:38:22 10° ENE daylight
21 May - 10:24:42 10° WNW 10:34:21 72° N 10:44:19 10° E daylight
21 May - 12:29:58 10° WNW 12:39:42 71° SSW 12:49:41 10° SE daylight
21 May - 14:36:01 10° WNW 14:43:39 26° SW 14:51:24 10° S daylight
